Location: Domont
(49.0278°N, 2.3264°E)
Time: 12:51:32
(UTC+00:00)

DX 1 - Pass Details

Date: 26 June 2022
Orbit: 617 x 630 km, 98.4° (Epoch: 13 August)

Event Time Altitude Azimuth Distance (km) Brightness Sun altitude
Rises 22:39:47 0° 0° (N) 2,935 ? -15.8°
Reaches altitude 10° 22:42:45 10° 339° (NNW) 2,021 ? -15.9°
Maximum altitude 22:45:20 16° 302° (WNW) 1,675 ? -16.0°
Drops below altitude 10° 22:47:55 10° 266° (W) 2,011 ? -16.2°
Sets 22:50:51 0° 244° (WSW) 2,912 ? -16.3°
